User: anonymous
Location: B
(0.0000°N, 0.0000°E)
Time: 07:36:26
(UTC+02:00)
Language:

Cosmos 1025 Rocket - Orbit

View from above orbital plane
View from above orbital plane
View from above satellite
View from above satellite

Ground track
Ground track

The orbit data is extracted from the following two-line orbital elements,

1 10974U 78067B   14203.75985983  .00000141  00000-0  13161-4 0  3517
2 10974 082.4822 093.1953 0016247 253.7340 164.1008 14.86613073949981
Epoch (UTC): 22 July 2014 18:14:11
Eccentricity: 0.0016247
inclination: 82.4822°
perigee height: 597 km
apogee height: 620 km
right ascension of ascending node: 93.1953°
argument of perigee: 253.7340°
revolutions per day: 14.86613073
mean anomaly at epoch: 164.1008°
orbit number at epoch: 94998

The dashed part of the orbit path shows where the satellite is in the earth's shadow,  

DLR